This demonstration page uses our WeatherBlox Daily Observations layout. Learn more.

36.19886, -115.1175

Hourly Observations for February 16, 2020

Temp ( °F °C ) Dew Point ( °F °C ) Humidity (%) Winds ( mph kmh ) Pressure ( in mb ) Visibility ( mi km ) Precip ( " mm )
12:53 am 00:53 Clear 48 8.9 24 -4.4 39 39 NNW 7 11 30.14 1021 10 16.0934 0 0
1:53 am 01:53 Clear 49 9.4 23 -5 36 36 WNW 6 9 30.13 1020 10 16.0934 0 0
2:53 am 02:53 Clear 47 8.3 24 -4.4 41 41 NW 6 9 30.13 1020 10 16.0934 0 0
3:53 am 03:53 Clear 47 8.3 24 -4.4 41 41 NW 3 6 30.13 1020 10 16.0934 0 0
4:53 am 04:53 Clear 45 7.2 24 -4.4 44 44 WNW 5 7 30.13 1020 10 16.0934 0 0
5:53 am 05:53 Clear 44 6.7 25 -3.9 47 47 NW 6 9 30.14 1021 10 16.0934 0 0
6:53 am 06:53 Sunny 45 7.2 24 -4.4 44 44 WNW 5 7 30.14 1021 10 16.0934 0 0
7:53 am 07:53 Sunny 50 10 26 -3.3 39 39 Calm 30.15 1021 10 16.0934 0 0
8:53 am 08:53 Sunny 56 13.3 24 -4.4 29 29 NNE 5 7 30.15 1021 10 16.0934 0 0
9:53 am 09:53 Sunny 57 13.9 24 -4.4 28 28 E 3 6 30.14 1021 10 16.0934 0 0
10:53 am 10:53 Sunny 59 15 25 -3.9 27 27 Calm 30.12 1020 10 16.0934 0 0
11:53 am 11:53 Sunny 62 16.7 25 -3.9 24 24 SE 5 7 30.08 1019 10 16.0934 0 0
12:53 pm 12:53 Sunny 63 17.2 25 -3.9 24 24 Calm 30.05 1018 10 16.0934 0 0
1:53 pm 13:53 Sunny 65 18.3 25 -3.9 22 22 Calm 30 1016 10 16.0934 0 0
2:53 pm 14:53 Sunny 67 19.4 25 -3.9 20 20 Calm 29.99 1016 10 16.0934 0 0
3:53 pm 15:53 Sunny 69 20.6 25 -3.9 19 19 N 3 6 29.98 1015 10 16.0934 0 0
4:53 pm 16:53 Sunny 67 19.4 26 -3.3 21 21 E 3 6 29.97 1015 10 16.0934 0 0
5:53 pm 17:53 Clear 64 17.8 26 -3.3 24 24 Calm 29.98 1015 10 16.0934 0 0
6:53 pm 18:53 Clear 61 16.1 28 -2.2 29 29 Calm 29.99 1016 10 16.0934 0 0
7:53 pm 19:53 Clear 59 15 27 -2.8 29 29 WNW 7 11 29.99 1016 10 16.0934 0 0
8:53 pm 20:53 Clear 58 14.4 27 -2.8 31 31 NW 5 7 30 1016 10 16.0934 0 0
9:53 pm 21:53 Clear 56 13.3 28 -2.2 34 34 NNW 7 11 30 1016 10 16.0934 0 0
10:53 pm 22:53 Clear 56 13.3 27 -2.8 33 33 NNW 6 9 29.99 1016 10 16.0934 0 0
11:53 pm 23:53 Clear 55 12.8 27 -2.8 34 34 WNW 6 9 29.99 1016 10 16.0934 0 0

Powered by AerisWeather